GFSSE_500_rhum_171.txt.gz
RH
19 12 13 21 20 15 15 15 13 16 25 41 46 46 36 31 26 23 23 23 24 25 27 26 28 31 34 33 34 36 29 29 37 43 38 28 23 19 33 40 40 25 8
14 12 14 14 12 12 14 17 13 14 22 30 39 44 41 36 31 29 28 28 29 30 31 34 33 34 33 31 31 36 40 38 41 44 46 37 29 29 53 53 48 40 33
14 13 14 14 11 12 12 15 14 14 24 26 31 34 36 36 35 34 31 30 29 30 29 29 31 30 31 33 36 33 27 27 34 32 32 36 34 29 57 55 44 50 50
15 14 14 14 11 11 11 13 15 16 24 24 25 26 29 33 33 32 31 29 26 24 26 28 31 32 30 29 26 22 22 23 22 27 31 35 40 40 57 56 53 51 50
16 16 15 13 12 11 11 13 16 16 25 23 22 25 28 29 26 25 26 26 25 25 27 29 30 28 27 23 20 18 16 16 15 16 21 23 18 20 30 39 35 35 44
15 15 14 13 12 11 11 14 18 18 23 24 22 24 26 25 23 20 19 23 27 27 24 22 19 16 15 14 14 14 14 14 15 14 14 14 12 28 39 44 35 19 16
14 14 14 14 13 11 11 15 19 23 23 21 19 20 24 23 21 19 18 21 19 19 19 15 16 19 20 20 19 18 18 17 14 11 9 8 8 11 25 28 34 45 35
15 15 14 14 13 11 12 17 20 22 20 18 18 20 22 22 22 19 16 18 15 15 17 20 21 21 19 17 16 14 14 12 9 8 8 8 8 10 15 29 32 33 32
16 14 14 14 13 11 13 16 19 20 20 20 17 19 21 22 21 20 17 14 16 22 22 22 21 19 17 15 13 11 10 10 10 9 8 7 8 10 10 10 11 23 36
21 15 14 14 13 11 17 21 23 22 22 22 17 17 21 23 21 20 19 14 19 22 22 21 18 17 15 13 12 10 10 9 8 8 8 8 8 9 10 10 11 15 16
18 14 14 14 13 12 18 25 25 24 25 24 19 16 20 24 23 19 20 19 19 20 20 21 26 27 27 27 27 27 26 24 24 22 19 18 16 14 10 10 10 13 16
17 15 14 14 16 15 22 27 29 30 30 29 21 16 17 22 23 21 20 19 18 18 24 37 37 37 38 36 33 31 28 26 25 24 23 22 22 23 24 24 23 22 22
18 15 14 12 14 16 27 32 33 33 34 33 25 18 15 18 23 24 25 24 22 26 40 44 42 40 36 31 28 24 22 20 20 21 21 20 18 17 17 17 18 19 21
17 15 14 13 12 18 30 38 36 37 40 37 27 19 14 15 20 25 28 29 29 40 46 44 42 41 39 34 28 24 22 23 22 21 20 18 17 16 15 14 13 13 13
18 17 16 14 13 37 44 39 43 46 49 50 32 18 14 14 15 21 31 32 37 44 46 41 36 34 34 34 31 24 22 24 24 24 23 23 22 20 18 16 16 17 14
17 15 15 16 18 31 38 48 55 56 58 56 37 22 13 12 13 21 34 41 47 49 42 37 34 32 34 37 37 32 29 28 25 20 18 18 18 17 19 21 19 16 15
15 15 17 20 26 36 42 60 62 69 70 56 46 30 16 12 13 27 42 56 56 50 39 31 31 40 44 40 38 33 28 23 19 19 16 12 8 7 8 11 14 18 16
17 18 24 31 40 35 50 64 66 78 80 65 48 36 19 13 15 30 48 56 49 41 36 29 40 52 47 42 38 31 28 24 22 21 16 12 8 8 9 10 11 10 14
27 27 29 36 43 61 62 60 67 74 80 67 40 30 18 14 18 28 38 36 31 28 32 38 51 57 49 44 38 32 28 26 22 21 20 13 11 14 16 16 15 16 15
47 38 36 32 36 56 64 71 63 72 78 75 42 22 16 15 18 23 32 34 40 45 47 48 56 55 50 44 40 35 33 31 26 23 16 13 14 14 13 12 9 8 6
53 58 48 49 55 59 66 75 78 79 82 82 60 26 20 18 22 32 40 42 62 54 50 48 60 56 50 45 44 42 37 30 24 20 20 18 16 12 8 5 4 4 3
49 54 48 47 86 76 79 79 84 86 88 95 70 32 25 25 28 43 65 67 65 55 48 58 71 58 48 51 47 41 33 29 25 20 14 11 7 4 4 4 4 4 5
62 55 48 48 69 87 78 71 80 94 98 95 67 37 30 28 41 55 75 75 63 49 59 80 74 67 55 53 47 36 31 27 21 9 6 5 4 4 5 6 9 12 19
54 64 53 36 50 78 69 71 93 98 96 96 70 44 34 37 55 75 84 67 58 74 89 88 80 76 68 52 41 36 32 19 11 6 5 6 5 8 16 20 17 35 50
59 82 63 46 35 50 53 83 97 95 99 99 88 56 42 57 74 81 77 88 91 90 98 86 86 71 57 47 38 28 12 7 5 4 4 8 16 24 27 33 49 53 58
63 88 94 61 68 74 59 92 96 94 99 97 95 70 76 84 90 88 97 94 94 99 89 90 80 67 58 49 29 10 6 6 5 5 8 14 36 38 24 49 60 57 54

GFSSE_500_rhum_174.txt.gz
RH
33 52 17 14 13 13 13 14 16 17 14 23 36 45 53 46 36 31 26 25 25 26 25 25 25 27 28 29 31 31 34 37 27 26 31 35 30 26 28 25 24 42 34
18 17 16 14 13 14 13 13 15 18 14 21 31 33 41 42 40 36 32 30 28 29 30 30 28 29 30 31 31 32 32 31 31 34 32 29 29 37 44 46 46 40 44
14 15 16 15 15 14 12 12 13 18 16 19 28 29 30 32 32 34 37 33 28 27 26 26 27 26 27 26 28 30 29 27 25 23 25 25 28 34 44 60 54 49 43
16 15 16 16 15 16 13 12 12 18 17 17 29 28 27 29 29 28 29 30 29 28 27 27 28 26 26 26 25 24 22 20 18 15 18 22 21 19 23 50 68 69 45
18 16 16 16 15 15 14 12 12 16 18 18 29 33 27 24 26 26 24 24 24 27 30 28 26 27 25 21 17 15 15 14 13 12 11 14 19 20 27 45 41 34 31
23 20 16 15 14 14 14 13 11 16 19 20 27 35 27 25 26 24 21 18 21 26 31 29 25 19 18 20 21 20 19 19 17 16 15 14 12 10 17 39 47 49 41
26 25 17 15 15 15 14 13 12 16 20 24 26 30 24 23 24 23 22 18 16 18 22 27 19 22 21 21 21 20 18 18 18 15 12 10 8 8 9 14 26 37 46
23 32 25 17 15 15 14 14 12 16 21 23 24 23 21 20 22 24 22 20 16 14 15 22 23 22 21 20 18 16 15 14 13 11 9 8 8 9 9 12 12 9 12
25 28 29 23 17 15 15 13 12 16 19 21 21 21 21 19 21 23 22 21 18 14 21 23 22 22 20 18 17 15 12 11 10 10 9 9 8 7 8 9 9 9 10
30 28 28 23 17 15 15 13 12 18 23 23 23 23 22 18 18 22 23 21 20 15 21 23 22 20 19 17 15 13 12 11 10 9 9 9 9 9 8 8 8 8 8
31 33 30 23 16 15 14 13 11 19 25 26 27 27 25 20 17 20 24 22 20 19 19 21 20 22 29 29 30 30 29 28 24 21 21 20 20 20 19 19 20 19 18
38 39 36 24 16 15 15 15 13 17 27 32 32 32 30 24 18 17 22 22 20 20 18 18 26 40 41 40 39 35 32 29 26 24 23 23 23 22 22 21 20 20 20
43 46 43 27 16 16 18 15 14 21 32 36 36 36 35 28 20 16 18 22 23 26 27 26 42 48 46 43 41 39 35 31 27 26 24 24 23 21 20 21 21 20 18
48 51 44 28 16 18 21 17 20 29 40 42 41 44 44 34 21 15 16 19 22 27 30 32 43 43 41 39 37 37 35 33 30 26 24 25 24 25 25 26 25 25 24
54 54 45 25 17 15 15 18 23 56 49 44 52 52 54 45 25 16 15 16 19 26 33 42 49 51 45 38 36 36 34 34 36 33 30 27 20 16 14 13 12 11 10
54 48 41 22 17 15 14 16 25 37 47 55 62 62 64 54 34 17 14 14 16 28 43 54 59 60 45 37 35 37 35 38 34 33 29 23 19 20 21 18 12 10 8
52 45 26 16 15 15 15 24 44 49 49 63 65 71 77 64 49 30 14 13 15 34 55 62 65 60 44 32 33 44 44 42 36 33 29 26 24 22 19 16 17 17 11
54 47 35 16 15 16 22 62 79 61 62 71 74 75 76 70 51 38 20 14 17 31 46 58 57 42 33 35 44 50 51 42 35 34 32 29 28 27 23 23 20 18 14
57 52 42 27 20 24 48 73 90 80 93 80 87 87 83 78 47 30 21 16 18 24 32 41 49 53 56 47 48 57 54 43 40 36 30 30 27 24 22 21 17 12 11
59 60 62 52 35 34 39 63 77 74 96 95 92 91 88 88 70 29 18 17 19 22 34 42 71 69 59 50 48 64 57 50 44 41 31 26 28 24 19 14 13 14 12
57 60 54 58 59 49 46 53 66 84 97 95 93 92 98 97 95 50 22 20 22 26 44 63 60 66 57 49 65 76 69 59 56 46 38 31 22 16 15 15 12 8 4
52 62 64 56 53 56 53 46 61 77 96 94 95 96 96 97 98 72 28 25 26 31 51 73 81 64 53 62 87 85 75 66 55 43 33 24 21 20 16 8 4 3 2
56 73 88 84 75 54 55 49 64 79 96 95 97 94 96 96 97 89 38 31 31 48 84 87 63 57 72 85 84 79 70 59 50 40 32 28 23 11 5 3 3 4 6
59 75 89 91 90 80 56 45 53 77 98 97 92 97 97 94 96 78 45 48 49 64 99 84 74 86 88 78 72 67 60 54 44 28 23 19 7 4 3 4 7 15 17
41 53 81 98 96 96 78 48 42 57 89 95 93 97 97 99 96 95 74 65 71 97 93 94 93 87 80 69 69 66 59 48 38 23 8 4 4 3 5 12 28 30 27
24 31 74 98 96 96 94 92 76 70 71 82 100 95 96 97 96 96 92 86 98 95 98 96 94 86 76 74 77 71 55 36 19 11 5 4 4 9 16 33 34 25 52

GFSSE_500_rhum_180.txt.gz
RH
48 42 31 18 18 18 17 16 16 16 14 13 12 14 17 19 26 25 27 30 31 32 30 29 29 28 26 24 24 24 26 28 28 31 38 33 33 32 28 38 46 44 48
40 42 42 19 19 21 21 17 16 16 14 13 12 13 18 18 24 27 25 24 27 29 29 28 28 30 31 30 30 27 28 30 34 31 29 32 28 25 28 33 44 50 56
44 45 43 20 19 22 26 20 16 15 15 14 13 12 18 19 22 28 27 22 23 24 22 22 23 24 28 29 28 28 26 23 22 22 22 21 22 22 20 26 39 50 57
40 42 38 21 18 22 26 26 17 16 15 15 13 12 17 20 21 28 29 23 23 23 21 20 22 24 26 29 29 27 25 21 18 16 15 15 17 22 23 35 49 51 56
36 37 30 20 19 22 24 29 23 17 16 15 14 13 16 21 23 27 30 25 23 23 22 20 23 28 28 29 26 20 16 15 14 14 14 14 13 15 16 15 45 47 46
29 28 21 19 23 22 22 26 30 19 17 16 15 13 17 21 25 29 30 25 22 24 22 20 22 29 27 25 21 18 20 21 20 19 19 18 17 16 13 12 27 29 30
21 19 19 20 23 21 25 28 28 24 18 18 16 14 20 24 25 28 28 26 22 24 24 20 19 25 26 20 19 22 22 21 21 19 19 17 15 12 10 10 11 14 16
23 21 20 20 20 27 32 30 30 26 19 18 18 16 21 25 28 26 24 24 23 23 24 22 19 17 23 19 22 22 21 19 18 16 16 15 12 11 10 10 10 10 10
21 24 20 20 21 32 37 33 33 27 20 19 20 19 22 24 26 26 26 26 25 22 23 22 20 15 17 22 23 23 21 18 17 14 12 11 10 10 10 10 9 9 8
18 22 23 21 21 32 44 39 37 31 21 19 21 21 24 33 32 32 32 31 29 24 21 23 21 17 23 23 23 22 21 18 16 17 22 24 23 21 20 20 21 21 21
21 20 23 27 23 33 42 42 44 39 26 19 22 23 23 26 33 36 36 36 36 32 21 21 22 20 20 24 22 21 25 28 29 30 31 31 27 26 26 23 23 24 23
28 30 42 33 24 28 41 46 51 46 32 20 20 25 26 27 37 43 42 40 41 38 26 19 20 20 20 21 19 24 29 31 32 30 31 31 32 32 30 27 24 25 24
41 40 46 42 24 26 39 49 56 52 39 25 22 26 34 38 45 57 51 49 51 47 28 20 19 19 19 18 20 33 43 39 38 38 38 36 34 33 34 34 31 29 29
47 48 47 38 23 28 38 50 57 56 44 30 22 32 41 37 72 73 61 66 60 58 40 20 19 19 18 19 25 34 48 52 50 46 40 38 36 36 38 40 37 34 31
51 47 44 39 33 32 41 53 56 54 43 33 26 27 36 52 81 70 72 74 73 69 54 30 18 20 19 18 22 34 47 54 53 50 43 38 32 36 40 42 37 33 29
48 49 45 46 46 49 53 57 58 49 35 28 27 47 34 49 86 74 78 84 84 86 75 56 32 17 19 18 18 30 43 49 55 60 56 43 29 35 46 47 43 42 40
46 49 48 44 46 56 61 59 59 40 24 20 26 51 57 62 94 76 87 92 88 90 87 63 47 28 16 16 17 26 46 57 60 58 45 28 25 36 51 51 46 45 44
44 50 47 38 44 52 55 53 58 42 31 48 66 70 57 70 95 90 94 97 94 95 89 81 40 36 24 17 18 26 36 39 36 27 24 29 32 39 46 57 53 52 44
36 40 38 39 39 51 56 54 57 54 42 53 73 77 68 82 98 97 97 96 94 94 90 94 91 41 22 19 21 28 33 26 23 30 34 35 36 45 57 59 55 49 41
30 32 33 40 38 48 57 60 62 59 55 50 66 67 82 91 100 99 99 96 94 95 91 95 97 90 38 24 24 30 30 29 36 41 45 51 58 61 63 60 51 41 34
28 39 42 49 42 49 50 56 61 60 60 61 61 51 72 74 97 100 100 97 97 96 93 90 95 97 93 60 48 47 40 42 47 54 63 72 70 64 57 48 40 37 34
28 41 48 49 42 44 51 55 62 60 56 58 62 62 81 85 96 98 98 99 95 98 96 94 96 98 96 90 84 71 68 73 79 72 75 69 63 55 48 43 39 30 25
18 30 45 52 51 51 53 57 53 57 59 60 57 58 70 93 97 99 92 99 99 97 97 96 95 96 92 91 89 84 83 84 84 79 71 66 60 52 49 45 34 29 24
17 25 31 44 52 53 41 40 56 73 75 67 68 68 71 84 100 99 99 98 100 97 98 97 96 97 94 89 87 89 94 88 84 77 66 60 56 54 48 40 30 23 21
12 20 26 29 48 62 53 66 84 81 83 82 73 77 77 82 87 97 99 99 98 96 97 95 95 95 96 94 94 97 92 92 86 79 74 60 60 57 44 31 21 14 10
13 20 28 25 39 57 63 78 88 72 90 71 72 85 81 92 89 86 84 91 98 96 98 97 99 98 96 97 96 98 94 93 87 80 76 69 67 46 31 22 13 9 4

GFSSE_500_rhum_183.txt.gz
RH
21 20 23 29 38 23 18 22 30 28 16 14 15 14 12 13 17 18 24 24 21 22 23 24 26 26 27 27 28 26 28 30 32 31 31 39 36 36 32 26 39 47 45
24 21 23 33 38 25 18 20 25 34 21 15 15 14 12 13 17 19 24 27 24 21 22 21 21 22 22 26 28 29 29 31 34 35 32 29 33 28 24 27 40 48 55
28 29 30 32 31 26 17 18 23 25 34 17 15 15 12 12 17 21 24 28 28 21 22 21 20 20 21 22 25 27 28 28 26 24 25 24 24 26 25 22 40 48 61
22 24 28 30 27 20 17 17 19 23 33 26 16 15 13 12 17 21 23 26 26 22 21 22 20 17 18 20 24 26 25 24 21 20 19 18 20 26 23 29 46 54 60
24 29 23 28 25 18 20 21 22 27 34 31 19 16 15 12 16 20 25 25 26 22 20 22 22 19 17 19 20 22 20 17 16 17 18 17 16 15 18 19 28 55 48
19 26 26 22 19 21 21 21 27 34 34 32 24 16 16 13 14 20 24 24 24 23 20 23 23 20 18 21 19 20 16 18 21 21 20 20 19 18 16 15 14 34 35
20 20 25 25 22 20 21 25 32 35 34 34 26 17 16 14 15 21 24 25 24 23 22 20 24 22 19 20 23 18 18 21 21 20 20 18 19 17 15 11 10 11 13
22 19 19 23 28 25 20 24 34 38 36 33 26 19 16 16 15 19 22 24 25 26 26 20 22 23 21 16 20 18 22 22 21 19 17 15 15 14 11 10 10 10 10
30 22 20 23 24 27 22 21 31 43 41 39 31 21 17 17 16 16 23 27 28 30 29 26 20 24 22 17 15 20 23 23 21 18 15 13 11 11 10 10 9 10 10
35 28 31 27 22 24 29 24 31 42 43 45 41 25 18 17 17 17 21 28 30 33 34 33 22 21 24 19 18 23 24 23 21 18 14 14 16 21 23 26 27 25 24
35 34 41 41 28 30 30 24 27 39 45 49 46 35 21 20 20 22 22 30 34 36 37 37 34 20 22 22 19 23 24 22 23 26 28 25 25 29 28 28 28 28 26
40 43 50 44 37 37 43 30 25 35 46 53 54 46 27 21 23 25 25 35 44 43 39 42 42 28 20 21 21 20 21 20 25 34 35 34 33 33 33 32 30 29 29
45 50 53 49 47 46 39 30 25 34 46 55 56 48 36 27 26 25 28 39 59 50 47 52 52 36 20 20 21 21 19 18 25 38 46 46 45 42 39 35 34 32 31
48 49 54 51 52 50 43 30 25 31 43 55 56 52 45 36 36 35 36 52 76 60 60 62 61 49 23 20 20 19 18 21 31 37 42 48 48 43 38 35 34 36 40
47 53 52 50 50 48 46 40 42 41 46 54 58 50 48 47 52 43 60 75 84 71 72 72 73 63 46 20 20 20 18 19 29 39 45 48 48 48 46 44 34 33 46
37 40 48 48 49 49 50 52 49 48 54 56 60 47 35 43 74 61 55 74 93 76 76 81 80 75 64 50 21 20 19 18 25 37 46 52 51 49 49 45 32 25 41
29 30 34 40 40 38 44 49 51 59 58 58 60 43 26 43 87 88 86 72 97 85 81 84 83 84 80 59 48 26 17 17 18 24 36 42 46 40 35 21 19 25 40
26 26 28 32 32 35 37 41 46 52 50 54 60 48 57 70 94 96 97 87 94 92 87 90 86 83 88 92 81 44 26 17 18 20 22 24 23 20 22 29 29 31 42
21 22 24 26 27 36 35 34 44 51 49 54 58 52 55 74 99 99 96 85 88 98 88 96 97 85 86 87 93 84 50 28 21 21 24 26 28 32 33 33 44 48 57
15 16 19 22 25 29 33 34 38 49 59 62 61 59 50 43 84 96 97 91 96 94 97 97 94 92 86 91 97 92 81 60 45 36 34 35 40 41 43 52 64 66 62
6 11 14 16 22 27 31 34 36 41 54 61 56 58 64 64 77 81 87 84 89 83 85 83 91 100 89 94 89 87 93 90 79 76 88 82 82 76 70 71 65 60 51
4 4 7 11 17 30 40 50 43 42 48 48 45 50 63 64 72 77 76 90 90 91 99 86 98 91 99 96 88 89 95 85 84 94 95 98 95 92 71 64 61 55 49
4 4 6 10 11 26 44 43 44 43 38 38 51 62 65 68 67 72 80 91 93 93 89 98 96 99 97 97 94 87 81 89 95 99 100 99 86 75 70 60 56 52 46
5 6 4 4 10 16 38 42 49 56 45 48 55 62 64 68 70 71 89 86 94 95 97 94 94 98 97 98 96 89 84 91 98 100 99 87 81 76 72 63 57 51 40
8 10 7 5 5 13 28 42 57 66 63 59 69 67 74 70 81 90 93 90 92 94 98 99 89 100 96 96 95 89 91 97 86 91 94 85 83 76 71 66 59 44 35
13 12 10 9 7 13 35 46 60 81 80 82 95 86 93 74 59 88 98 98 97 98 95 87 85 92 89 92 91 88 96 88 78 84 87 86 80 71 71 69 50 36 29

GFSSE_500_rhum_186.txt.gz
RH
14 20 25 23 22 21 22 19 16 18 22 30 27 15 15 13 11 15 19 23 25 22 21 21 21 21 22 23 27 29 30 32 31 30 31 30 37 40 38 33 30 48 48
16 17 22 23 19 23 21 18 16 16 20 27 36 19 15 15 11 14 19 23 25 25 20 21 21 20 19 20 24 28 30 30 30 30 32 32 29 34 29 27 29 43 46
19 20 23 32 23 22 23 17 17 19 21 29 36 32 15 15 12 13 19 22 24 25 21 20 21 20 19 18 22 28 30 29 27 25 23 23 23 25 26 27 32 47 55
16 18 19 24 27 23 21 18 18 21 25 33 36 36 24 15 14 12 17 22 25 24 23 19 21 21 20 18 20 29 32 30 26 22 19 16 16 21 32 23 30 49 61
18 18 19 20 22 22 21 20 20 21 26 34 38 37 32 16 15 13 17 22 24 23 23 21 20 22 21 19 20 24 30 27 19 17 17 15 13 13 20 27 23 38 59
29 23 23 22 19 20 22 20 20 22 28 34 38 38 34 20 15 14 14 19 23 24 23 23 20 22 22 20 18 19 21 21 20 22 21 20 18 17 16 16 15 19 43
32 31 28 29 20 20 22 23 20 20 26 35 39 38 33 22 16 15 13 15 19 22 24 25 25 20 23 22 20 18 19 16 21 22 21 20 19 19 18 16 14 11 14
27 27 42 31 23 22 23 24 26 22 24 36 41 40 38 28 19 16 14 14 16 20 26 28 29 25 21 23 21 18 18 17 22 22 20 19 17 16 16 13 11 10 10
29 33 68 30 30 28 26 23 25 32 26 37 41 43 44 40 23 18 16 14 18 23 28 30 31 31 23 22 23 19 16 17 22 23 21 18 17 13 12 11 11 10 10
39 47 54 34 35 35 34 26 28 25 24 31 41 45 49 46 34 20 17 16 18 23 28 32 34 34 33 21 23 23 17 20 23 24 23 19 15 14 16 19 21 22 24
48 53 50 43 40 44 46 36 32 40 29 27 38 45 50 52 44 27 20 19 19 24 33 36 39 36 38 34 20 23 21 21 24 23 23 23 21 26 27 27 29 28 27
56 51 49 46 45 51 52 47 42 41 38 25 34 44 51 55 50 38 23 23 23 27 38 44 44 39 45 44 27 20 22 21 21 22 21 24 26 29 31 31 31 32 33
46 46 52 53 57 57 57 55 56 49 36 25 29 39 47 55 53 45 32 29 29 30 50 63 56 51 55 53 38 21 20 22 22 22 19 22 30 34 36 37 40 40 36
42 44 41 42 41 44 49 51 52 51 35 28 28 33 45 54 56 51 41 33 29 30 48 78 66 58 61 64 52 26 20 20 20 18 18 27 36 37 39 40 42 40 37
35 34 38 38 38 41 41 44 45 50 49 41 39 41 48 54 58 52 48 45 43 43 55 79 77 65 66 74 72 54 24 20 20 19 18 23 36 46 50 49 47 44 43
30 32 30 31 34 33 34 33 39 42 52 52 48 47 51 57 60 48 45 69 73 60 65 73 79 72 69 72 79 74 62 36 21 20 18 19 26 38 45 48 46 45 43
21 21 23 26 28 29 29 29 36 42 44 49 56 54 57 59 62 46 35 75 94 84 78 78 85 78 75 72 78 85 89 81 56 36 18 18 21 27 36 42 39 31 26
11 11 13 16 18 18 21 26 29 36 42 40 44 49 56 59 62 48 50 69 98 95 94 84 78 89 84 78 84 85 92 96 96 63 33 19 16 19 20 20 19 19 26
6 6 5 4 5 11 14 18 24 27 29 32 37 40 47 55 59 55 55 79 97 98 94 88 78 100 95 90 89 88 85 94 98 94 80 60 52 31 23 24 29 31 33
5 5 4 4 4 6 7 11 15 19 27 33 36 44 48 54 59 58 55 68 88 97 97 86 80 90 95 98 89 87 92 94 95 90 87 87 78 71 74 55 46 48 54
6 6 6 6 4 4 4 5 9 11 13 28 38 47 47 45 52 59 64 56 65 87 100 93 84 96 95 95 92 87 96 97 92 87 92 89 85 85 92 97 100 88 79
6 7 8 8 5 4 4 6 4 8 11 16 25 37 48 50 46 53 63 69 74 76 80 83 80 89 89 99 98 92 88 91 86 82 81 82 90 90 88 84 82 75 69
6 7 8 8 9 4 6 6 5 5 8 17 26 46 57 62 60 65 70 72 77 76 84 81 85 96 98 94 100 96 98 91 93 89 89 95 94 87 80 83 80 75 68
8 8 8 9 11 9 7 9 7 6 6 20 62 75 80 79 76 77 62 72 70 75 79 83 86 98 98 88 98 98 97 95 88 91 98 92 85 76 79 84 80 74 71
10 8 9 10 12 13 10 9 11 9 9 22 54 84 79 85 84 81 71 78 74 77 83 86 89 96 99 99 96 97 100 93 80 94 96 89 72 69 79 78 79 72 67
18 14 11 12 12 13 19 16 13 13 14 19 52 100 99 98 100 98 89 83 81 78 80 87 94 98 93 97 96 97 97 89 94 94 99 88 74 68 74 80 72 66 66